Figari, France

1:00 PM CEST on March 26, 2017 (GMT +0200)
Figari-Sud Corse

Weather History for LFKF - August, 2013

Change the Weather History Date:

Saturday, August 24, 2013

  Actual Average Record
Temperature  
Mean Temperature 73 °F -  
Max Temperature 89 °F 79 °F 96 °F (2012)
Min Temperature 57 °F 62 °F 52 °F (2016)
Cooling Degree Days 8    
Growing Degree Days 23 (Base 50)    
Moisture  
Dew Point 61 °F    
Average Humidity 66    
Maximum Humidity 100    
Minimum Humidity 29    
Precipitation  
Precipitation 0.00 in - - ()
Sea Level Pressure  
Sea Level Pressure 29.92 in    
Wind  
Wind Speed 5 mph ()    
Max Wind Speed 14 mph    
Max Gust Speed -    
Visibility 5.8 miles    
Events      
Averages and records for this station are not official NWS values.
T = Trace of Precipitation, MM = Missing Value Source: Averaged Metar Reports

Daily Weather History Graph

Daily Weather History Graph

Search for Another Location

Airport or City:

Trip Planner

Search our weather history database for the weather conditions in past years. The results will help you decide how hot, cold, wet, or windy it might be!

Date:

Astronomy

Aug. 24, 2013 Rise Set
Actual Time 6:41 AM CEST 8:09 PM CEST
Civil Twilight 6:12 AM CEST 8:38 PM CEST
Nautical Twilight 5:37 AM CEST 9:13 PM CEST
Astronomical Twilight 5:00 AM CEST 9:50 PM CEST
Moon 9:50 PM CEST (8/24) 10:27 AM CEST (8/24)
Length of Visible Light 14h 25m
Length of Day
13h 27m
Waning Gibbous, 86% of the Moon is Illuminated
Aug 24
Waning Gibbous
Aug 28
Last Quarter
Sep 5
New
Sep 12
First Quarter
Sep 19
Full

Hourly Weather History & Observations

Time (CEST) Temp. Heat Index Dew Point Humidity Pressure Visibility Wind Dir Wind Speed Gust Speed Precip Events Conditions
12:00 AM 66.2 °F - 62.6 °F 88% 29.98 in 5.6 mi Variable 2.3 mph - N/A   Unknown
12:30 AM 64.4 °F - 62.6 °F 94% 29.98 in 6.2 mi NE 3.5 mph - N/A   Unknown
1:00 AM 62.6 °F - 60.8 °F 94% 29.98 in 5.0 mi Calm Calm - N/A   Unknown
1:30 AM 62.6 °F - 59.0 °F 88% 29.98 in 5.6 mi NNE 3.5 mph - N/A   Unknown
2:00 AM 62.6 °F - 59.0 °F 88% 29.95 in 5.0 mi Variable 2.3 mph - N/A   Unknown
2:30 AM 60.8 °F - 57.2 °F 88% 29.95 in 3.7 mi Variable 1.2 mph - N/A   Unknown
3:00 AM 60.8 °F - 57.2 °F 88% 29.95 in 5.0 mi NE 2.3 mph - N/A   Unknown
3:30 AM 59.0 °F - 55.4 °F 88% 29.95 in 3.7 mi Calm Calm - N/A   Unknown
4:00 AM 59.0 °F - 57.2 °F 94% 29.95 in 3.1 mi Calm Calm - N/A   Mist
4:30 AM 57.2 °F - 55.4 °F 94% 29.95 in 5.6 mi NE 2.3 mph - N/A   Unknown
5:00 AM 57.2 °F - 55.4 °F 94% 29.95 in 5.0 mi NE 2.3 mph - N/A   Unknown
5:30 AM 59.0 °F - 57.2 °F 94% 29.95 in 6.2 mi Variable 2.3 mph - N/A   Unknown
6:00 AM 57.2 °F - 55.4 °F 94% 29.95 in 5.0 mi NE 2.3 mph - N/A   Unknown
6:30 AM 57.2 °F - 53.6 °F 88% 29.95 in 5.6 mi NE 2.3 mph - N/A   Unknown
7:00 AM 57.2 °F - 57.2 °F 100% 29.95 in 5.6 mi North 2.3 mph - N/A   Unknown
7:30 AM 60.8 °F - 59.0 °F 94% 29.95 in 6.2 mi Variable 2.3 mph - N/A   Unknown
8:00 AM 66.2 °F - 64.4 °F 94% 29.95 in 6.2 mi Calm Calm - N/A   Unknown
8:30 AM 73.4 °F - 69.8 °F 88% 29.95 in 6.2 mi Calm Calm - N/A   Unknown
9:00 AM 78.8 °F - 69.8 °F 74% 29.95 in 6.2 mi NE 3.5 mph - N/A   Unknown
9:30 AM 80.6 °F 83.2 °F 68.0 °F 65% 29.95 in 6.2 mi Variable 2.3 mph - N/A   Unknown
10:00 AM 82.4 °F 84.6 °F 66.2 °F 58% 29.95 in 6.2 mi Variable 2.3 mph - N/A   Unknown
10:30 AM 84.2 °F 86.6 °F 66.2 °F 55% 29.95 in 6.2 mi SSW 5.8 mph - N/A   Unknown
11:00 AM 86.0 °F 88.2 °F 66.2 °F 51% 29.95 in 6.2 mi SSW 6.9 mph - N/A   Unknown
11:30 AM 86.0 °F 87.3 °F 64.4 °F 48% 29.95 in 6.2 mi SSW 10.4 mph - N/A   Unknown
12:00 PM 87.8 °F 87.6 °F 60.8 °F 40% 29.95 in 6.2 mi SW 10.4 mph - N/A   Unknown
12:30 PM 87.8 °F 87.6 °F 60.8 °F 40% 29.95 in 6.2 mi SW 11.5 mph - N/A   Unknown
1:00 PM 87.8 °F 88.5 °F 62.6 °F 43% 29.92 in 6.2 mi SW 11.5 mph - N/A   Unknown
1:30 PM 87.8 °F 88.5 °F 62.6 °F 43% 29.92 in 6.2 mi SW 13.8 mph - N/A   Unknown
2:00 PM 87.8 °F 87.6 °F 60.8 °F 40% 29.92 in 6.2 mi WSW 12.7 mph - N/A   Unknown
2:30 PM 87.8 °F 87.6 °F 60.8 °F 40% 29.92 in 6.2 mi SW 11.5 mph - N/A   Unknown
3:00 PM 89.6 °F 90.1 °F 62.6 °F 40% 29.92 in 6.2 mi SW 12.7 mph - N/A   Unknown
3:30 PM 89.6 °F 89.5 °F 60.8 °F 38% 29.89 in 6.2 mi West 11.5 mph - N/A   Unknown
4:00 PM 89.6 °F 88.1 °F 57.2 °F 33% 29.89 in 6.2 mi West 11.5 mph - N/A   Unknown
4:30 PM 89.6 °F 87.7 °F 55.4 °F 31% 29.89 in 6.2 mi West 12.7 mph - N/A   Unknown
5:00 PM 89.6 °F 87.3 °F 53.6 °F 29% 29.86 in 6.2 mi West 11.5 mph - N/A   Unknown
5:30 PM 89.6 °F 87.3 °F 53.6 °F 29% 29.86 in 6.2 mi West 11.5 mph - N/A   Unknown
6:00 PM 87.8 °F 85.7 °F 53.6 °F 31% 29.86 in 6.2 mi WSW 9.2 mph - N/A   Unknown
6:30 PM 84.2 °F 85.6 °F 64.4 °F 51% 29.86 in 6.2 mi SW 12.7 mph - N/A   Unknown
7:00 PM 82.4 °F 83.9 °F 64.4 °F 54% 29.86 in 6.2 mi SW 10.4 mph - N/A   Unknown
7:30 PM 80.6 °F 82.3 °F 64.4 °F 58% 29.86 in 6.2 mi SW 10.4 mph - N/A   Unknown
8:00 PM 78.8 °F - 64.4 °F 61% 29.86 in 6.2 mi SW 9.2 mph - N/A   Unknown
8:30 PM 77.0 °F - 64.4 °F 65% 29.86 in 6.2 mi SW 9.2 mph - N/A   Unknown
9:00 PM 75.2 °F - 64.4 °F 69% 29.89 in 6.2 mi WSW 11.5 mph - N/A   Unknown
9:30 PM 73.4 °F - 62.6 °F 69% 29.89 in 6.2 mi WSW 11.5 mph - N/A   Unknown
10:00 PM 75.2 °F - 62.6 °F 65% 29.89 in 6.2 mi SW 13.8 mph - N/A   Unknown
10:30 PM 75.2 °F - 62.6 °F 65% 29.89 in 6.2 mi SW 13.8 mph - N/A   Unknown
11:00 PM 73.4 °F - 62.6 °F 69% 29.86 in 6.2 mi SW 12.7 mph - N/A   Unknown
11:30 PM 73.4 °F - 60.8 °F 65% 29.86 in 6.2 mi SW 9.2 mph - N/A   Unknown